DLH3VT EGLL-EDDM

Flight info

Callsign DLH3VT
Flight time N/A
Altitude 37000
Route DET L6 DVR UL9 KONAN UL607 SPI DCT MOVUM T109 HAREM T104 ROKIL ROKIL1A
Aircraft A320/M-SDE3FGHIRWY/LB1

Departure

Time N/A
Airport London Heathrow Airport (EGLL)

Arrival

Time 2026-05-06 08:11
Airport Munich Airport (EDDM)
Time Latitude Longitude Altitude Speed Heading
2026-05-06 07:51 49.44362 9.72059 36807 ft 447 kts 134°
2026-05-06 07:51 49.42305 9.75634 36812 ft 446 kts 134°
2026-05-06 07:52 49.38186 9.82772 36812 ft 446 kts 134°
2026-05-06 07:52 49.34069 9.89899 36811 ft 446 kts 134°
2026-05-06 07:53 49.29942 9.97010 36595 ft 447 kts 134°
2026-05-06 07:53 49.27898 10.00521 35974 ft 447 kts 134°
2026-05-06 07:53 49.25820 10.04081 35176 ft 450 kts 134°
2026-05-06 07:54 49.23720 10.07667 34311 ft 454 kts 134°
2026-05-06 07:54 49.21603 10.11283 33389 ft 459 kts 135°
2026-05-06 07:54 49.19459 10.14945 32462 ft 463 kts 135°
2026-05-06 07:54 49.17298 10.18635 31456 ft 468 kts 135°
2026-05-06 07:55 49.15115 10.22360 30497 ft 472 kts 135°
2026-05-06 07:55 49.12930 10.26071 29543 ft 472 kts 136°
2026-05-06 07:55 49.10695 10.29753 28577 ft 473 kts 137°
2026-05-06 07:55 49.08429 10.33400 27552 ft 473 kts 137°
2026-05-06 07:56 49.06165 10.36996 26008 ft 469 kts 137°
2026-05-06 07:56 49.03855 10.40640 24422 ft 484 kts 136°
2026-05-06 07:56 49.01513 10.44346 23404 ft 482 kts 136°
2026-05-06 07:56 48.99207 10.48016 22415 ft 479 kts 136°
2026-05-06 07:57 48.96926 10.51649 21752 ft 469 kts 136°
2026-05-06 07:57 48.94740 10.55139 20515 ft 457 kts 135°
2026-05-06 07:57 48.92559 10.58629 19687 ft 443 kts 135°
2026-05-06 07:57 48.90440 10.62014 18873 ft 441 kts 135°
2026-05-06 07:58 48.88355 10.65334 18078 ft 439 kts 135°
2026-05-06 07:58 48.86250 10.68670 17281 ft 437 kts 135°
2026-05-06 07:58 48.84149 10.71986 16521 ft 434 kts 135°
2026-05-06 07:58 48.82062 10.75278 15771 ft 431 kts 135°
2026-05-06 07:59 48.80016 10.78508 15028 ft 415 kts 135°
2026-05-06 07:59 48.78017 10.81657 14346 ft 412 kts 135°
2026-05-06 07:59 48.76040 10.84771 13745 ft 408 kts 135°
2026-05-06 07:59 48.74123 10.87876 13259 ft 399 kts 134°
2026-05-06 08:00 48.72258 10.90972 12636 ft 396 kts 133°
2026-05-06 08:00 48.70433 10.94043 12017 ft 392 kts 133°
2026-05-06 08:00 48.68623 10.97095 11538 ft 384 kts 133°
2026-05-06 08:00 48.66866 11.00052 11262 ft 371 kts 133°
2026-05-06 08:01 48.65175 11.02887 11134 ft 354 kts 133°
2026-05-06 08:01 48.63553 11.05592 11008 ft 340 kts 133°
2026-05-06 08:01 48.62012 11.08154 10891 ft 317 kts 133°
2026-05-06 08:01 48.60576 11.10535 10623 ft 301 kts 134°
2026-05-06 08:02 48.59168 11.12858 10374 ft 296 kts 134°
2026-05-06 08:02 48.57783 11.15137 10120 ft 293 kts 133°
2026-05-06 08:02 48.56414 11.17392 9995 ft 292 kts 133°
2026-05-06 08:02 48.55058 11.19622 9981 ft 293 kts 133°
2026-05-06 08:03 48.53681 11.21884 9850 ft 292 kts 133°
2026-05-06 08:03 48.52312 11.24136 9731 ft 291 kts 133°
2026-05-06 08:03 48.50934 11.26402 9390 ft 295 kts 133°
2026-05-06 08:03 48.49549 11.28677 9024 ft 293 kts 133°
2026-05-06 08:04 48.48177 11.30924 8620 ft 290 kts 133°
2026-05-06 08:04 48.46820 11.33147 7981 ft 287 kts 133°
2026-05-06 08:04 48.45475 11.35356 7398 ft 282 kts 133°
2026-05-06 08:04 48.44146 11.37432 7083 ft 266 kts 142°
2026-05-06 08:05 48.42581 11.38674 6869 ft 248 kts 159°
2026-05-06 08:05 48.41019 11.39732 6287 ft 247 kts 155°
2026-05-06 08:05 48.39434 11.40833 5717 ft 254 kts 156°
2026-05-06 08:05 48.37844 11.41926 5488 ft 247 kts 155°
2026-05-06 08:06 48.36340 11.43059 5353 ft 236 kts 146°
2026-05-06 08:06 48.35157 11.44700 5251 ft 230 kts 127°
2026-05-06 08:06 48.34400 11.46799 5156 ft 228 kts 108°
2026-05-06 08:06 48.34132 11.49139 5017 ft 227 kts 89°
2026-05-06 08:07 48.34281 11.51492 4756 ft 224 kts 83°
2026-05-06 08:07 48.34470 11.53784 4463 ft 218 kts 83°
2026-05-06 08:07 48.34649 11.56014 4203 ft 213 kts 83°
2026-05-06 08:07 48.34824 11.58233 3904 ft 213 kts 83°
2026-05-06 08:08 48.34997 11.60415 3625 ft 208 kts 83°
2026-05-06 08:08 48.35165 11.62550 3366 ft 200 kts 83°
2026-05-06 08:08 48.35271 11.63894 3184 ft 192 kts 83°
2026-05-06 08:08 48.35422 11.65815 2950 ft 177 kts 83°
2026-05-06 08:09 48.35559 11.67572 2699 ft 161 kts 83°
2026-05-06 08:09 48.35725 11.69693 2423 ft 150 kts 83°
2026-05-06 08:09 48.35846 11.71229 2232 ft 147 kts 83°
2026-05-06 08:09 48.35926 11.72252 2109 ft 145 kts 83°
2026-05-06 08:10 48.36045 11.73755 1952 ft 145 kts 82°
2026-05-06 08:10 48.36163 11.75256 1779 ft 144 kts 83°
2026-05-06 08:10 48.36280 11.76753 1564 ft 144 kts 82°
2026-05-06 08:10 48.36390 11.78180 1475 ft 124 kts 83°
2026-05-06 08:11 48.36465 11.79199 1480 ft 75 kts 83°
2026-05-06 08:11 48.36509 11.79772 1485 ft 35 kts 83°
2026-05-06 08:11 48.36479 11.80093 1481 ft 30 kts 113°
2026-05-06 08:11 48.36405 11.80354 1485 ft 27 kts 113°
2026-05-06 08:12 48.36319 11.80565 1475 ft 22 kts 155°
2026-05-06 08:12 48.36191 11.80541 1475 ft 17 kts 249°
2026-05-06 08:12 48.36172 11.80356 1485 ft 19 kts 262°
2026-05-06 08:12 48.36156 11.80153 1481 ft 20 kts 269°
2026-05-06 08:13 48.36140 11.79937 1485 ft 22 kts 263°
2026-05-06 08:13 48.36123 11.79704 1476 ft 23 kts 263°
2026-05-06 08:13 48.36098 11.79494 1475 ft 15 kts 232°
2026-05-06 08:13 48.35997 11.79496 1481 ft 15 kts 173°
2026-05-06 08:14 48.35888 11.79515 1482 ft 16 kts 174°
2026-05-06 08:14 48.35771 11.79535 1482 ft 18 kts 173°
2026-05-06 08:14 48.35724 11.79608 1485 ft 10 kts 81°
2026-05-06 08:14 48.35731 11.79697 1485 ft 3 kts 84°
2026-05-06 08:15 48.35731 11.79701 1475 ft 0 kts 84°